ESSAIM-4

Satellite information

Favourite Embed

Satellite Type and Status

PAYLOADIN ORBIT

Key statistics

Satellite ESSAIM-4 at a glance.

Uptime

7666

Days in orbit

Revolutions

≈ 14.9

Per day

Orbit

SSO

Sun Synchronous Orbit

Inclination

98.3

Latest

Satellite identification and parameters

Extended collection of information and parameters for ESSAIM-4.

Object identification

Identified? True

Debris? False

Object name: ESSAIM-4

International designator: 2004-049F

Object number (NORAD): 28497

Object ID (CCSDS): 28497

Country: FRANCE (FR)

Current information (Y/N): Y

RCS size: MEDIUM

Orbital parameters

Period: 96.806 minutes

Inclination: 98.2761 deg

SMA: 6983.833 km

Apoapsis: 606.679 km

Periapsis: 604.717 km

RAAN: 222.1376 deg

Eccentricy: 0.00014051

Argument of periapsis: 122.2645 deg

Mean anomaly: 237.8707 deg

Mean motion: 14.87517246 rev/day

Mean motion (dot): 0.00002612 rev/day2

B* drag term: 0.00029458827 1/REarth

Two-line elements (TLE)

Creation date: Dec. 14, 2025, 3:07 a.m.

Reference frame: TEME

Reference center: EARTH

Epoch: Dec. 13, 2025, 2:25 p.m. UTC

TLE line 0: 0 ESSAIM-4

TLE line 1: 1 28497U 04049F 25347.60088514 .00002612 00000-0 29459-3 0 9993

TLE line 2: 2 28497 98.2761 222.1376 0001405 122.2645 237.8707 14.87517246131868

Live tracking on map

Real-time ground track for satellite ESSAIM-4.

In-orbit conjunctions

There are no conjunctions computed for ESSAIM-4, at the moment. Check back to stay up to date, as we update our databases every day.

Go to all conjunctions

Associated space launch

Helios and Essaim are French miltary satellites for observation of Earth. Parasol is an Earth Observation research satellite.Nanosat 01 is a small technologu demonstator for the spanish space agency INTA.

ESSAIM-4 was lifted into orbit during the mission ‘Ariane 5 G+ | Helios 2A, Essaim 1, 2, 3, 4, PARASOL, Nanosat 01’, on board a Ariane 5 G+ space rocket.

The launch took place on Dec. 18, 2004, 4:26 p.m. from Ariane Launch Area 3.

For more information about the launch, click the button.

Launch to space Ariane 5 G+ | Helios 2A, Essaim 1, 2, 3, 4, PARASOL, Nanosat 01
Ariane 5 G+ | Helios 2A, Essaim 1, 2, 3, 4, PARASOL, Nanosat 01

Agency: N/A

Status: Launch Successful

Launch date: Dec. 18, 2004, 4:26 p.m. UTC

Rocket: Ariane 5 G+

Launch pad: Ariane Launch Area 3

Location: Guiana Space Centre, French Guiana

...

Latest news about this satellite

There are no fresh news available about this satellite. Check back as we update our databases every day.


Newsletter sign-up

Weekly statistics, charts and insights to help you stay on top of the space industry.